Wind_Speed
89 90 90 86 86 83 83 84 86 88 89 88 89 90 91 89 82 80 74 73 72 74 69 64 49 52 59 58 54 51 48 46
91 91 91 91 90 87 86 87 93 95 95 101 99 98 98 97 94 86 83 80 78 72 75 67 49 48 57 60 55 54 49 47
101 96 94 90 89 87 87 89 93 100 102 102 100 102 99 97 99 94 85 84 83 73 74 69 53 46 54 64 61 54 51 50
97 96 94 90 88 87 88 91 96 99 103 103 102 102 101 98 94 89 79 79 86 81 76 71 60 46 50 64 64 56 55 52
92 91 89 85 86 84 83 89 95 100 100 100 101 95 97 96 91 83 66 56 48 72 77 77 67 53 50 58 66 65 56 53
89 88 86 88 84 85 89 90 94 95 95 94 91 86 85 83 79 72 60 38 63 90 77 80 63 52 45 53 64 67 60 56
88 87 86 81 86 86 82 83 83 78 77 72 69 65 66 70 73 65 56 62 62 73 77 72 59 54 47 51 55 65 66 59
83 84 81 82 81 79 75 69 72 69 63 62 60 53 52 54 64 56 48 75 69 67 45 58 60 60 57 44 54 62 71 63
79 79 75 73 68 69 62 60 59 59 53 52 53 50 41 41 47 41 44 62 51 37 49 80 76 68 68 68 57 58 71 69
75 75 68 63 60 57 53 53 52 42 41 38 39 42 35 29 38 39 61 64 54 53 54 82 95 82 82 81 70 67 68 73
76 76 65 58 54 49 44 37 33 30 22 22 26 31 26 28 35 56 83 67 67 67 70 70 75 87 97 89 79 67 64 72
73 69 62 51 47 38 34 34 23 21 15 15 15 18 23 33 46 72 83 81 76 69 69 71 84 77 86 80 74 70 58 68
62 61 56 45 39 28 29 23 19 18 12 6 7 14 23 36 55 74 82 81 79 71 83 94 99 82 77 80 73 70 55 56
54 56 48 36 31 29 29 25 17 14 8 9 26 42 63 72 64 75 81 87 73 59 65 54 53 65 66 61 62 57 61 54
50 54 42 33 28 29 26 24 12 13 16 21 40 75 76 79 72 67 74 69 51 36 23 63 54 62 67 65 68 64 56 52
48 51 40 31 30 29 22 25 17 21 21 41 55 84 82 81 78 78 76 66 43 29 25 17 32 55 73 66 38 41 47 53
44 50 36 32 34 29 29 20 23 27 34 43 61 77 83 85 86 83 75 61 58 67 57 58 36 54 66 71 74 63 55 58
41 48 35 38 39 31 29 23 26 29 42 46 63 72 80 92 90 86 72 68 69 84 88 85 65 60 58 50 51 60 62 57
43 44 40 38 41 35 29 23 29 33 40 50 54 69 72 80 87 80 82 79 83 85 87 93 93 75 71 60 53 56 58 56
Wind_Direction
293 293 289 284 282 278 276 275 274 274 273 271 270 269 269 268 265 264 262 264 267 270 270 258 255 254 250 243 241 243 245 245
292 289 287 284 282 280 277 274 272 268 266 268 268 266 266 266 265 263 263 262 263 263 269 268 259 256 249 244 237 240 240 243
289 287 286 284 280 276 274 271 266 267 267 266 264 265 266 264 262 263 260 262 261 262 263 266 265 253 249 241 235 236 236 240
290 289 289 286 282 278 275 272 269 267 266 267 268 267 268 270 270 270 267 256 259 260 258 262 262 253 249 240 238 234 235 236
288 288 288 285 282 281 279 271 269 271 273 275 276 275 273 272 270 266 260 256 274 283 276 258 259 260 251 243 239 237 234 233
291 291 288 287 285 280 277 278 276 276 277 276 274 273 270 266 262 254 247 205 199 264 266 262 255 259 253 250 242 238 234 232
293 292 290 288 286 287 288 288 287 284 281 278 272 268 260 255 251 241 226 183 181 227 244 249 254 258 263 253 252 242 237 232
293 293 294 293 294 293 293 291 286 285 283 282 279 272 262 250 246 239 211 185 193 207 226 244 251 253 257 259 258 252 240 234
297 297 296 297 298 295 297 293 290 289 286 278 275 272 262 247 241 233 202 183 178 185 175 246 255 241 255 265 257 254 246 236
304 302 303 302 299 299 297 293 290 282 276 266 258 259 256 231 221 204 178 172 187 186 169 232 234 239 260 260 260 251 248 238
308 308 307 307 302 301 295 290 293 287 271 270 248 245 239 215 196 178 169 172 193 173 192 208 234 241 248 255 255 250 246 235
307 304 304 307 296 301 297 299 300 304 299 270 237 219 205 182 177 173 170 163 166 176 183 192 221 230 237 242 243 252 245 233
309 301 303 303 301 299 314 308 306 301 308 255 183 159 177 173 165 165 170 171 166 182 192 199 207 233 241 242 246 245 249 241
312 303 301 296 298 296 309 308 294 280 259 214 156 142 139 142 146 156 165 168 183 191 206 215 234 237 247 245 242 254 248 243
314 304 297 288 292 295 301 303 264 241 186 177 160 151 149 148 146 150 155 165 169 199 225 234 250 253 248 250 243 255 244 252
312 301 291 277 284 287 286 288 229 198 206 164 164 161 160 154 148 153 163 163 157 156 186 227 232 243 246 255 239 241 250 258
309 299 287 265 272 272 283 257 217 198 186 175 171 170 167 166 159 162 171 180 178 179 177 170 212 234 243 247 252 245 248 248
308 296 279 258 263 266 268 254 220 204 192 184 177 180 178 172 174 171 180 195 194 190 192 195 207 212 224 235 251 243 245 224
305 290 274 262 256 262 255 249 215 198 195 191 187 188 187 186 185 188 186 192 195 196 195 200 208 215 226 225 231 236 218 214
Height
10621 10616 10608 10605 10604 10602 10603 10599 10594 10592 10590 10593 10593 10594 10596 10601 10612 10616 10624 10627 10631 10635 10638 10648 10654 10657 10659 10666 10673 10679 10686 10690
10605 10595 10588 10583 10580 10580 10580 10578 10571 10570 10571 10563 10564 10570 10573 10578 10583 10596 10603 10610 10614 10619 10623 10628 10640 10644 10648 10653 10660 10665 10674 10680
10584 10576 10568 10562 10560 10558 10556 10553 10546 10535 10534 10536 10538 10538 10543 10550 10556 10566 10584 10594 10596 10607 10611 10615 10623 10631 10636 10641 10646 10652 10661 10669
10558 10549 10541 10537 10535 10531 10530 10524 10514 10508 10504 10507 10509 10513 10516 10521 10528 10539 10561 10577 10577 10592 10600 10603 10610 10618 10625 10628 10636 10641 10648 10657
10534 10527 10519 10512 10506 10506 10501 10490 10485 10478 10475 10479 10478 10485 10492 10498 10503 10516 10535 10554 10578 10600 10600 10593 10597 10604 10614 10618 10624 10631 10637 10643
10510 10503 10495 10488 10481 10474 10469 10468 10460 10458 10456 10449 10449 10455 10458 10467 10471 10483 10515 10547 10580 10560 10583 10594 10586 10591 10602 10609 10614 10620 10625 10632
10486 10477 10471 10463 10454 10450 10449 10440 10429 10427 10423 10421 10420 10426 10430 10437 10442 10455 10487 10525 10526 10567 10573 10582 10575 10580 10589 10599 10604 10612 10617 10622
10466 10458 10451 10442 10435 10429 10425 10420 10406 10401 10401 10397 10395 10400 10405 10413 10417 10437 10468 10504 10519 10549 10560 10566 10564 10569 10576 10587 10594 10602 10608 10611
10447 10439 10431 10426 10420 10409 10405 10397 10389 10384 10385 10383 10381 10381 10388 10396 10409 10428 10447 10474 10498 10517 10530 10561 10556 10556 10558 10580 10582 10588 10599 10603
10428 10417 10415 10411 10402 10395 10390 10383 10377 10375 10372 10370 10369 10370 10375 10384 10390 10406 10428 10450 10474 10487 10526 10541 10542 10543 10547 10564 10570 10576 10586 10591
10412 10402 10399 10395 10388 10383 10378 10374 10369 10364 10361 10359 10359 10361 10365 10373 10388 10393 10417 10436 10464 10475 10504 10519 10537 10537 10542 10552 10558 10564 10575 10578
10404 10394 10387 10386 10379 10375 10370 10364 10361 10356 10353 10353 10353 10355 10360 10371 10382 10398 10416 10431 10456 10473 10489 10510 10514 10527 10529 10537 10545 10555 10563 10567
10393 10385 10378 10374 10369 10367 10364 10359 10356 10354 10350 10351 10352 10359 10366 10374 10388 10403 10419 10429 10450 10466 10482 10490 10489 10500 10518 10528 10534 10543 10550 10556
10381 10374 10369 10366 10362 10361 10358 10356 10356 10354 10350 10352 10352 10362 10370 10377 10392 10402 10418 10430 10447 10466 10479 10492 10503 10505 10509 10512 10524 10533 10539 10545
10374 10364 10362 10359 10357 10356 10354 10354 10354 10356 10350 10352 10355 10359 10368 10376 10391 10411 10424 10437 10460 10473 10486 10498 10497 10493 10492 10500 10511 10523 10528 10532
10363 10357 10354 10351 10351 10352 10350 10349 10350 10354 10353 10350 10356 10358 10363 10373 10379 10389 10404 10419 10427 10456 10472 10480 10475 10485 10485 10493 10500 10510 10515 10519
10353 10348 10346 10343 10345 10346 10345 10345 10345 10349 10351 10351 10353 10358 10361 10366 10371 10383 10392 10400 10410 10433 10442 10441 10468 10475 10473 10476 10483 10494 10503 10510
10343 10338 10336 10335 10336 10339 10340 10340 10341 10343 10348 10348 10348 10352 10358 10361 10368 10371 10376 10386 10394 10409 10426 10438 10441 10445 10458 10467 10473 10481 10490 10499
10333 10328 10325 10324 10326 10330 10333 10333 10336 10337 10341 10345 10344 10348 10352 10360 10365 10371 10372 10378 10390 10400 10411 10419 10427 10432 10444 10456 10464 10470 10480 10485